Regional Weather Roundup
Issued by NWS

Home | Current Version | Previous Version | Text Only | Print | Product List | Glossary On
Versions: 1 2 3 4 5 6 7 8 9 10 11 12 13 14 15 16 17 18 19 20 21 22 23 24 25 26 27 28 29 30 31 32 33 34 35 36 37 38 39 40 41 42 43 44 45 46 47 48 49 50
000
ASUS44 KBMX 180210
RWRAL

ALABAMA REGIONAL WEATHER ROUNDUP
NATIONAL WEATHER SERVICE BIRMINGHAM AL
800 PM CST SUN DEC 17 2017

NOTE: "FAIR" INDICATES FEW OR NO CLOUDS BELOW 12,000 FEET
WITH NO SIGNIFICANT WEATHER AND/OR OBSTRUCTIONS TO VISIBILITY.

THE REMARK "TC" DENOTES TEMPERATURE IN DEGREES CELSIUS.

ALZ001>011-014-016>018-020-180300-
NORTH ALABAMA

CITY           SKY/WX    TMP DP  RH WIND       PRES   REMARKS
MUSCLE SHOALS  CLOUDY    48  45  89 CALM      30.16R
HUNTSVILLE     CLOUDY    46  46 100 E5        30.17R
DECATUR        CLOUDY    46  45  96 SE5       30.17S
HALEYVILLE     CLOUDY    46  46 100 CALM      30.17R
GADSDEN        CLOUDY    43  43 100 NE6       30.19R FOG
$$

ALZ012-013-022-023-030>036-040>044-180300-
WEST CENTRAL ALABAMA

CITY           SKY/WX    TMP DP  RH WIND       PRES   REMARKS
TUSCALOOSA     FOG       49  49 100 CALM      30.15S VSB 1/2
DEMOPOLIS        N/A     48  48 100 CALM      30.14S FOG
$$

ALZ015-024>026-033>036-041>044-180300-
CENTRAL ALABAMA

CITY           SKY/WX    TMP DP  RH WIND       PRES   REMARKS
BIRMINGHAM     CLOUDY    47  46  97 CALM      30.17S FOG
MONTGOMERY     CLOUDY    51  48  89 N5        30.13F FOG
SHELBY CO ARPT CLOUDY    46  46 100 NE3       30.15S FOG
MAXWELL AFB    CLOUDY    51  51 100 N6        30.12S
GREENVILLE     CLOUDY    67  63  87 S9        30.10R
SELMA          FOG       50  48  93 CALM      30.13S VSB 3/4
PRATTVILLE     CLOUDY    51  51 100 CALM      30.13R FOG
BESSEMER       FOG       46  46 100 CALM      30.15S VSB 1/2
TALLADEGA      CLOUDY    46  46 100 CALM      30.17S FOG
PELL CITY      FOG       45  45 100 N3        30.18S VSB 3/4
MARION         FOG       47  47 100 CALM      30.13F VSB 1/2
SYLACAUGA      RAIN      48  48 100 CALM      30.16S
$$

ALZ019-021-028-029-037-038-045>048-180300-
EAST CENTRAL ALABAMA

CITY           SKY/WX    TMP DP  RH WIND       PRES   REMARKS
ANNISTON       CLOUDY    46  44  93 NE6       30.17S FOG
ALEXANDER CITY CLOUDY    48  48 100 NE5       30.15R
AUBURN         CLOUDY    55  54  96 CALM      30.15S
$$

ALZ051>064-180300-
SOUTHWEST ALABAMA

CITY           SKY/WX    TMP DP  RH WIND       PRES   REMARKS
MOBILE         FOG       65  64  97 SE8       30.12R VSB 1/2
BROOKLEY FIELD PTCLDY    65  65 100 S7        30.13S
EVERGREEN      CLOUDY    67  66  97 S9        30.12S
$$

ALZ049-050-065>069-180300-
SOUTHEAST ALABAMA

CITY           SKY/WX    TMP DP  RH WIND       PRES   REMARKS
DOTHAN         MOCLDY    66  66 100 S14       30.17F
OZARK          LGT RAIN  66  64  94 S10       30.12F
TROY           CLOUDY    65  65 100 S8        30.12F
EUFAULA        FAIR      64  62  93 S7        30.11F
$$



USA.gov is the U.S. government's official web portal to all federal, state and local government web resources and services.